map of ORE home
Great Circle Mapper logo
ORE - Airport
Location
City:  Orléans, France
Name:Bricy
ICAO / IATA:LFOJ / ORE

Details
Type:Airport (Aerodrome, Airfield)
Use:Military
Latitude:47°59'16"N (47.987778)
Longitude:1°45'38"E (1.760556)
Elevation:412 ft (126 m)
Runways:1
Longest:7887 × 148 ft (2404 × 45 m)

Time
Time Zone:UTC+1 (DST+2)
Local Time:

Weather
METAR:LFOJ 210630Z AUTO 23011KT 9999 FEW012 SCT020 BKN026 14/13 Q1015
TAF:LFOJ 210500Z 2106/2206 25015G25KT 9999 BKN010
BECMG 2108/2110 BKN020
TEMPO 2111/2114 28020G35KT 4000 -RA PROB40
TEMPO 2114/2118 4900 -SHRA BKN025TCU

Related Locations
Nearby:
Farthest:CHT: 12130 mi / 19521 km
Waitangi [Tuuta], Chatham Islands, NZ

Find:

   beyond  
but within

Other Information
Maps:
NOTAMs:
Links:
Sources:

  
flag of France   

Sectional Chart

Flight Planning
at skyvector.com

Satellite Image

Google Maps Satellite View

 

Copyright © 2004-2014 Karl L. Swartz. All rights reserved.
The Great Circle Mapper name and logo are trademarks of the Great Circle Mapper.
All other trademarks mentioned herein belong to their respective owners.
Please see credits for attibutions and further copyright information.

  Follow gcmap on Facebook Follow gcmap on Twitter

hCard Microformat

Geo Microformat